Volver al catálogo

FENGYUN 1C DEB

ActivoSSO
NORAD 31424·DEBRIS·🇨🇳 China

Lanzado May 10, 1999 desde Taiyuan Satellite Launch Center

Loading…

Próximos Pases (próximas 24 horas)

TLE

ActualizadoSource: Space-Track

Época: Sep 14, 2026, 08:08 UTC

1 31424U 99025BTL 26257.33891478  .00000077  00000-0  65464-4 0  9997
2 31424  98.4492 289.4498 0093991  41.3826 319.4417 14.08552853670509

Sigue FENGYUN 1C DEB en tiempo real con AllMySat

Download on the App Store